Wind_Speed
13 13 14 14 13 13 13 12 12 11 11 11 10 10 9 9 8 8 7 7 7 7 7 6 6 6 5 4 4 4 4 4 4 4 4 4 4 4 4 4 4 4 4
14 14 15 15 15 14 14 14 13 13 12 12 12 11 10 10 9 9 8 8 8 7 7 7 7 6 6 5 5 4 4 4 4 4 3 3 3 3 3 3 3 3 3
16 16 16 16 16 15 15 15 15 14 14 14 13 12 12 11 11 10 10 9 9 8 8 8 8 7 7 6 6 5 5 5 4 3 3 2 2 2 2 2 2 2 2
18 18 18 18 17 17 17 17 16 16 16 16 15 14 13 12 12 12 11 11 10 10 9 9 9 8 8 7 7 6 6 6 5 4 3 3 2 2 1 1 0 1 1
20 20 20 20 19 19 19 18 18 17 17 17 16 16 15 14 14 13 13 12 12 11 11 10 10 9 9 8 8 8 7 7 6 5 4 4 3 2 1 1 1 1 2
22 22 21 21 21 20 20 20 19 19 19 19 18 17 16 16 15 14 14 14 13 13 12 11 11 10 10 9 9 9 8 7 6 6 5 5 4 3 3 2 2 2 3
24 23 23 22 22 22 21 21 21 21 20 20 19 18 18 17 16 16 16 15 14 14 14 13 12 11 11 10 10 9 9 8 7 6 6 6 5 5 4 4 3 3 4
26 26 24 23 23 23 22 22 22 22 21 21 21 20 20 19 18 18 17 17 16 16 15 14 14 13 12 11 11 10 10 10 9 8 7 7 7 6 6 6 6 5 5
28 27 26 25 24 24 24 23 23 23 23 23 23 22 22 21 20 19 19 18 17 17 16 16 15 14 13 12 12 12 11 11 10 10 9 8 8 8 8 8 8 8 7
29 29 28 27 26 26 26 25 25 24 24 24 24 24 23 23 22 21 20 20 19 19 18 17 16 15 15 13 13 13 13 13 12 12 12 11 10 10 10 10 9 9 10
31 30 30 29 28 27 27 27 27 26 26 26 25 25 24 24 23 23 22 21 20 20 20 19 18 17 17 16 15 15 15 14 14 14 14 13 13 12 12 12 12 12 12
33 32 32 31 30 30 29 29 28 28 28 27 27 26 26 26 25 24 24 23 22 22 21 21 20 19 19 18 17 17 17 16 16 16 15 15 14 14 14 14 14 13 13
34 35 34 34 33 32 32 31 31 30 29 29 28 28 28 27 27 26 26 25 24 24 23 22 21 21 21 20 19 19 18 18 18 17 17 16 16 16 16 16 15 15 14
37 37 37 36 35 34 34 33 33 32 32 31 30 30 29 29 29 28 28 27 27 26 25 24 23 22 22 22 21 20 20 19 19 18 18 17 17 17 16 16 16 16 16
39 38 38 38 37 36 35 35 34 34 34 33 32 32 31 31 30 30 29 28 28 28 27 26 25 24 24 23 23 22 21 21 20 19 19 18 19 18 18 17 17 17 18
41 40 40 39 39 38 37 37 37 36 35 34 34 34 33 33 32 31 30 30 29 29 29 28 27 26 26 25 24 24 23 23 22 21 21 20 20 20 19 19 18 18 19
43 42 42 41 40 40 40 39 39 38 37 36 35 35 34 34 33 32 31 31 31 30 30 29 29 28 27 26 25 25 24 24 23 23 22 22 21 21 21 21 21 20 20
45 44 44 43 42 42 41 41 41 40 39 38 37 36 35 35 34 34 33 32 32 31 31 30 30 29 28 28 26 26 25 25 25 24 23 23 23 22 22 22 22 22 21
47 46 45 45 44 43 42 42 42 42 41 40 39 38 37 37 36 35 35 34 33 32 31 31 31 30 30 29 28 27 27 26 26 26 25 25 24 24 24 23 23 22 22
48 48 47 47 46 46 45 44 44 44 43 42 41 40 39 38 38 38 37 36 35 34 33 32 32 32 32 31 30 29 28 28 27 27 27 26 26 26 25 24 24 23 23
49 49 49 49 48 48 48 47 47 46 46 45 43 42 41 40 40 39 38 38 36 35 35 34 33 32 32 32 31 30 29 29 28 28 27 27 27 26 26 26 25 25 24
50 50 50 50 50 50 49 48 48 47 47 46 45 44 43 42 41 40 40 39 38 37 35 35 35 35 34 33 32 31 30 29 29 29 28 28 28 27 27 27 26 26 26
50 50 51 52 52 51 50 49 49 48 48 48 47 45 44 44 43 42 40 39 39 39 37 36 36 36 35 35 34 33 32 31 30 29 29 29 28 28 28 28 28 28 28
51 51 52 53 53 52 52 51 51 50 48 47 47 47 46 45 43 42 41 40 40 40 39 38 37 37 36 36 35 34 34 33 32 30 29 29 29 29 29 29 29 29 29
53 53 53 53 53 53 53 52 52 51 50 48 48 48 47 47 44 43 42 42 40 40 39 38 38 37 37 37 36 35 34 34 33 32 32 31 31 31 30 30 30 30 30
53 54 54 54 54 54 54 54 54 52 51 51 49 49 48 47 46 45 44 43 43 41 40 39 38 38 38 37 37 36 35 35 34 34 33 33 32 32 31 31 31 31 31
Wind_Direction
228 227 225 223 221 219 219 221 222 222 219 217 216 216 217 218 217 214 210 208 208 208 206 203 199 195 188 180 175 170 161 153 141 135 128 121 114 107 102 96 91 87 84
229 228 227 226 223 222 222 222 224 226 223 220 221 220 220 221 220 218 216 214 213 213 212 212 210 208 207 200 193 188 178 168 160 154 145 134 128 120 110 101 92 90 83
231 229 228 227 226 225 225 225 227 228 226 223 223 223 222 221 221 220 221 220 219 219 219 220 219 217 217 214 208 201 192 183 179 175 165 153 151 144 132 114 98 81 64
233 231 231 229 229 228 227 228 229 229 227 225 224 223 224 224 224 222 223 225 225 225 225 225 222 222 223 222 219 213 204 199 199 198 193 187 182 182 183 190 154 35 19
234 233 233 231 231 230 229 230 230 230 227 225 226 226 226 226 226 225 226 228 230 230 229 228 227 226 226 226 226 223 218 213 214 218 217 213 210 215 230 243 272 314 327
235 234 233 233 232 231 231 231 231 231 228 226 227 228 227 227 227 228 229 230 232 233 232 231 231 229 229 230 229 228 225 219 221 226 226 228 232 238 243 255 275 296 305
235 235 234 234 233 232 232 231 231 230 229 228 229 229 228 228 229 230 231 232 234 235 235 234 234 232 232 232 231 230 230 225 225 230 232 237 242 246 252 261 274 289 298
234 234 235 235 234 233 232 231 231 231 231 230 230 230 231 231 232 232 233 234 234 235 235 235 235 235 236 234 234 233 234 234 232 237 240 244 247 251 256 261 269 278 287
234 234 234 235 235 234 233 232 232 232 233 232 231 232 232 232 232 233 234 234 236 236 236 236 235 236 237 237 236 237 238 239 239 241 244 248 253 256 259 264 268 273 281
234 234 235 235 234 235 234 233 232 233 233 233 232 232 233 232 233 234 235 235 237 237 237 236 236 236 235 237 239 240 242 242 244 246 248 251 255 257 260 264 267 271 277
235 235 235 235 235 235 235 234 233 233 234 234 233 233 233 233 233 234 235 236 237 238 238 238 238 237 237 239 241 243 244 246 248 250 252 254 256 259 263 265 268 271 275
236 236 236 235 236 236 236 235 234 234 235 235 235 235 234 234 234 235 237 237 237 238 239 239 240 239 239 242 244 246 247 249 250 250 253 256 257 262 265 266 268 271 274
237 237 237 236 236 236 236 236 235 235 235 236 236 237 236 235 235 237 238 239 238 239 240 242 242 242 242 244 247 247 247 249 252 253 253 257 260 263 267 267 267 269 272
236 236 236 236 237 237 236 236 236 236 236 236 237 238 238 238 237 238 239 240 240 240 240 241 243 243 244 245 247 248 247 249 252 254 256 258 260 263 266 266 266 267 271
236 237 237 236 237 237 237 236 237 237 237 237 237 238 239 239 239 239 239 240 240 240 240 241 243 244 245 246 247 248 248 249 251 254 256 259 261 263 265 265 268 268 270
236 236 237 236 237 237 237 236 236 237 237 237 238 238 239 240 240 239 238 239 240 240 241 242 243 244 245 246 247 248 249 249 251 253 256 259 261 261 263 264 267 269 269
235 235 236 236 236 237 236 235 235 235 236 236 237 238 239 239 240 239 238 239 239 240 242 242 243 243 244 246 247 248 249 250 251 253 256 259 261 262 264 266 266 268 268
235 235 236 235 236 236 236 234 234 234 235 236 237 237 238 239 240 239 239 239 239 239 241 242 243 243 244 245 246 248 249 250 251 253 255 258 260 262 264 267 267 268 268
235 235 235 235 235 235 236 235 235 234 234 235 237 238 238 237 238 239 239 240 239 239 240 241 243 244 245 246 246 247 248 250 251 253 255 257 259 261 264 265 267 268 269
234 235 235 235 235 234 234 235 236 235 235 235 236 238 238 237 237 238 238 239 240 240 240 240 242 245 246 246 247 247 248 249 251 253 255 256 258 261 263 264 266 268 270
234 234 235 235 235 235 234 235 236 236 236 236 236 236 237 237 237 238 239 239 240 241 241 242 242 244 246 246 247 247 248 249 250 252 254 255 257 260 261 264 265 267 269
234 234 234 235 236 236 235 235 235 236 235 235 236 235 236 236 237 238 239 240 240 241 242 243 243 244 245 246 247 247 248 250 250 251 253 255 257 259 262 263 265 267 269
234 234 234 235 235 235 235 234 234 235 235 235 235 234 235 237 238 238 239 240 241 242 243 243 243 244 244 245 246 247 248 249 251 252 254 256 258 260 262 264 266 268 270
234 234 234 235 235 236 236 235 234 234 235 234 234 235 235 236 236 237 238 239 241 242 243 243 243 243 244 245 246 247 248 249 250 251 253 255 257 259 261 263 266 268 270
235 235 235 235 236 236 235 235 235 234 234 234 234 235 236 237 237 236 238 239 240 242 243 242 244 245 244 244 246 247 248 249 251 251 253 255 257 259 261 262 265 267 269
236 235 235 235 236 236 235 235 235 235 235 234 234 235 235 236 236 237 238 239 239 240 241 242 243 244 243 243 245 247 248 249 251 252 253 255 257 258 260 263 265 267 270
Height
5849 5849 5851 5852 5853 5855 5856 5857 5859 5860 5862 5863 5864 5865 5866 5867 5868 5869 5869 5870 5871 5871 5872 5872 5873 5874 5874 5874 5875 5875 5875 5875 5875 5875 5876 5876 5876 5876 5875 5875 5875 5875 5875
5847 5848 5849 5850 5852 5853 5855 5856 5857 5859 5860 5862 5863 5864 5865 5866 5867 5868 5869 5869 5870 5871 5871 5872 5873 5873 5874 5874 5875 5875 5875 5875 5876 5876 5876 5876 5876 5876 5876 5876 5876 5876 5875
5844 5845 5846 5848 5849 5851 5853 5854 5856 5857 5859 5860 5861 5863 5864 5865 5866 5867 5868 5869 5869 5870 5871 5871 5872 5873 5873 5874 5874 5875 5875 5875 5876 5876 5876 5876 5876 5876 5876 5876 5876 5876 5876
5841 5842 5844 5845 5847 5849 5850 5852 5853 5855 5857 5858 5860 5861 5862 5864 5865 5866 5867 5868 5868 5869 5870 5871 5871 5872 5873 5873 5874 5874 5875 5875 5875 5876 5876 5876 5876 5876 5876 5876 5876 5876 5876
5837 5839 5841 5842 5844 5846 5848 5849 5851 5853 5854 5856 5858 5859 5861 5862 5863 5864 5865 5866 5867 5868 5869 5870 5870 5871 5872 5872 5873 5874 5874 5874 5875 5875 5876 5876 5876 5876 5876 5876 5876 5876 5875
5833 5835 5837 5839 5841 5843 5844 5846 5848 5850 5852 5853 5855 5857 5858 5860 5861 5862 5863 5865 5866 5867 5868 5868 5869 5870 5871 5871 5872 5873 5873 5873 5874 5875 5875 5875 5875 5876 5875 5875 5875 5875 5875
5829 5831 5833 5835 5837 5839 5841 5843 5845 5847 5849 5851 5853 5854 5856 5857 5859 5860 5861 5863 5864 5865 5866 5867 5868 5869 5870 5870 5871 5872 5872 5872 5873 5874 5874 5874 5875 5875 5875 5875 5875 5874 5874
5824 5826 5828 5831 5833 5835 5837 5839 5841 5844 5846 5848 5850 5851 5853 5855 5856 5858 5859 5860 5862 5863 5864 5865 5866 5867 5868 5869 5870 5870 5871 5871 5872 5872 5873 5873 5873 5873 5874 5874 5874 5873 5873
5819 5821 5824 5826 5828 5831 5833 5835 5838 5840 5842 5844 5846 5848 5850 5852 5853 5855 5856 5858 5859 5860 5861 5863 5864 5865 5866 5867 5868 5868 5869 5870 5870 5871 5871 5871 5872 5872 5872 5872 5872 5872 5872
5813 5815 5818 5821 5824 5826 5828 5831 5833 5835 5838 5840 5842 5844 5846 5848 5850 5851 5853 5855 5856 5857 5859 5860 5861 5863 5864 5865 5866 5867 5867 5868 5868 5869 5869 5869 5870 5870 5870 5870 5870 5870 5870
5807 5810 5813 5815 5818 5821 5823 5826 5828 5831 5833 5835 5837 5840 5842 5844 5846 5848 5849 5851 5853 5854 5855 5857 5858 5860 5861 5862 5863 5864 5865 5865 5866 5867 5867 5867 5867 5868 5868 5868 5868 5868 5868
5801 5804 5807 5810 5813 5815 5818 5821 5823 5826 5828 5830 5833 5835 5837 5840 5842 5843 5845 5847 5849 5850 5852 5853 5855 5856 5858 5859 5860 5861 5862 5863 5863 5864 5864 5864 5865 5865 5865 5865 5865 5865 5865
5794 5797 5800 5803 5806 5809 5812 5815 5818 5820 5823 5825 5827 5830 5832 5835 5837 5839 5841 5843 5844 5846 5848 5850 5851 5853 5854 5856 5857 5858 5859 5859 5860 5860 5861 5861 5861 5862 5862 5862 5862 5862 5862
5786 5790 5793 5796 5799 5802 5805 5808 5811 5814 5817 5819 5822 5824 5827 5829 5832 5834 5836 5838 5840 5842 5843 5845 5847 5849 5850 5851 5853 5854 5855 5855 5856 5857 5857 5858 5858 5858 5858 5858 5858 5859 5859
5778 5781 5785 5788 5791 5795 5798 5801 5804 5807 5810 5813 5815 5818 5821 5823 5826 5828 5830 5832 5834 5836 5838 5840 5842 5844 5845 5847 5848 5849 5850 5851 5852 5853 5853 5854 5854 5854 5855 5855 5855 5855 5855
5769 5773 5776 5780 5783 5786 5790 5793 5796 5799 5803 5806 5809 5811 5814 5817 5819 5822 5824 5826 5829 5831 5833 5835 5837 5839 5840 5842 5843 5844 5846 5847 5848 5849 5849 5850 5850 5850 5851 5851 5851 5851 5851
5759 5763 5767 5771 5774 5778 5781 5785 5788 5791 5795 5798 5801 5804 5807 5810 5813 5815 5818 5820 5823 5825 5827 5829 5831 5833 5835 5837 5838 5839 5841 5842 5843 5844 5845 5845 5846 5846 5846 5847 5847 5847 5847
5749 5753 5757 5761 5765 5769 5772 5776 5779 5783 5786 5790 5793 5797 5800 5803 5806 5808 5811 5814 5816 5818 5821 5823 5825 5827 5829 5831 5832 5834 5835 5836 5838 5839 5839 5840 5841 5841 5842 5842 5842 5842 5842
5738 5743 5747 5751 5755 5759 5763 5766 5770 5774 5777 5781 5785 5788 5792 5795 5798 5801 5804 5807 5809 5811 5814 5817 5819 5821 5823 5825 5827 5828 5829 5831 5832 5833 5834 5835 5836 5836 5837 5837 5837 5837 5837
5727 5732 5736 5741 5745 5749 5753 5756 5760 5764 5768 5772 5776 5779 5783 5787 5790 5793 5797 5799 5802 5804 5807 5810 5812 5814 5816 5818 5820 5822 5823 5825 5826 5827 5828 5829 5830 5831 5831 5832 5832 5832 5832
5715 5720 5724 5729 5734 5738 5742 5746 5750 5754 5758 5762 5766 5770 5774 5778 5781 5785 5789 5792 5794 5797 5800 5802 5805 5807 5809 5812 5814 5815 5817 5819 5820 5821 5822 5823 5824 5825 5825 5826 5826 5826 5826
5703 5708 5713 5717 5722 5727 5731 5735 5740 5743 5748 5752 5756 5761 5764 5768 5772 5776 5780 5783 5786 5789 5792 5795 5797 5800 5802 5804 5807 5809 5810 5812 5813 5815 5816 5817 5817 5818 5819 5819 5820 5820 5820
5691 5696 5700 5705 5710 5715 5719 5724 5728 5732 5737 5741 5746 5751 5754 5759 5763 5767 5771 5774 5778 5781 5784 5786 5789 5792 5794 5797 5799 5802 5803 5806 5807 5808 5809 5810 5811 5812 5812 5813 5813 5813 5813
5679 5683 5688 5692 5697 5702 5707 5712 5716 5721 5726 5731 5736 5740 5745 5749 5753 5757 5761 5765 5769 5772 5775 5778 5781 5784 5786 5789 5791 5793 5796 5798 5800 5801 5802 5803 5804 5805 5805 5806 5806 5806 5806
5666 5671 5675 5680 5685 5690 5695 5700 5705 5710 5715 5720 5725 5730 5734 5739 5743 5747 5752 5756 5759 5763 5766 5769 5772 5775 5778 5780 5783 5785 5787 5789 5791 5793 5795 5796 5797 5797 5798 5799 5799 5799 5799
5653 5658 5663 5667 5672 5677 5683 5688 5693 5699 5704 5709 5714 5719 5723 5728 5733 5738 5742 5746 5749 5753 5757 5760 5763 5766 5769 5772 5774 5777 5779 5781 5783 5785 5787 5788 5789 5790 5790 5791 5791 5792 5792